Location: downtown San Diego
(32.7310°N, 117.1990°W)
Time: 17:57:05
(UTC-07:00)

Lacrosse 5 rocket - Pass Details

Date: 19 May 2017
Orbit: 467 x 636 km, 57.0° (Epoch: 22 May)

Event Time Altitude Azimuth Distance (km) Brightness Sun altitude
Rises 20:20:15 0° 254° (WSW) 2,792 5.7 -7.6°
Reaches altitude 10° 20:22:57 10° 271° (W) 1,926 5.2 -8.1°
Maximum altitude 20:26:15 20° 320° (NW) 1,403 4.5 -8.7°
Drops below altitude 10° 20:29:40 10° 9° (N) 1,992 4.5 -9.4°
Sets 20:32:31 0° 26° (NNE) 2,919 5.1 -9.9°
